User: anonymous   Login
Location: Valdosta
(30.8330°N, 83.2790°W)
Time: 17:10:40
(UTC-04:00)
Language:

Uribyol 2 - Orbit

View from above orbital plane
View from above orbital plane
View from above satellite
View from above satellite

Ground track
Ground track

The orbit data is extracted from the following two-line orbital elements,

1 22828U 93061F   18113.53595469  .00000031  00000-0  29337-4 0  9993
2 22828  98.8434  87.3164 0010961 101.9789 258.2622 14.30670162250319
Epoch (UTC): 23 April 2018 12:51:46
Eccentricity: 0.0010961
inclination: 98.8434°
perigee height: 781 km
apogee height: 797 km
right ascension of ascending node: 87.3164°
argument of perigee: 101.9789°
revolutions per day: 14.30670162
mean anomaly at epoch: 258.2622°
orbit number at epoch: 25031

The dashed part of the orbit path shows where the satellite is in the earth's shadow,  

DLR